Location: Chamerau
(49.1969°N, 12.7525°E)
Time: 05:46:49
(UTC+00:00)

Cosmos 2278 Rocket - Pass Details

Date: 18 September 2020
Orbit: 841 x 845 km, 71.0° (Epoch: 27 October)

Event Time Altitude Azimuth Distance (km) Brightness Sun altitude
Exits shadow 23:04:03 20° 324° (NW) 1,873 4.4 -39.4°
Drops below altitude 10° 23:08:00 10° 8° (N) 2,471 5.3 -39.4°
Sets 23:11:10 0° 25° (NNE) 3,410 6.1 -39.4°
